Tracking 19817 objects as of 19-Aug-2019
HD Live streaming from Space Station
objects crossing your sky now

COSMOS 2251 DEB

Track COSMOS 2251 DEB now!
10-day predictions


NORAD ID: 35991
Int'l Code: 1993-036AWH
Perigee: 518.7 km
Apogee: 632.2 km
Inclination: 73.9 °
Period: 96.0 minutes
Semi major axis: 6946 km
RCS: 0.0064 m2 (small)
Launch date: June 16, 1993
Source: Commonwealth of Independent States (former USSR) (CIS)
Launch site: PLESETSK MISSILE AND SPACE COMPLEX (PKMTR)

Note: This is SATELLITE DEBRIS
aabbcc
Your satellite tracking list
Your tracking list is empty




NASA's NSSDC Master Catalog

Two Line Element Set (TLE):
1 35991U 93036AWH 19228.19274339  .00004010  00000-0  30746-3 0  9996
2 35991  73.9093 183.5138 0081671  37.4398 323.2437 14.99551080545444
Source of the keplerian elements: AFSPC